Regional Weather Roundup
Issued by NWS Kansas City/Pleasant Hill, MO

Home | Current Version | Previous Version | Text Only | Print | Product List | Glossary Off
Versions: 1 2 3 4 5 6 7 8 9 10 11 12 13 14 15 16 17 18 19 20 21 22 23 24 25 26 27 28 29 30 31 32 33 34 35 36 37 38 39 40 41 42 43 44 45 46 47 48 49 50

000
ASUS43 KEAX 270410
RWREAX

WEATHER ROUNDUP FOR EASTERN KANSAS AND NORTHWEST MISSOURI
NATIONAL WEATHER SERVICE KANSAS CITY/PLEASANT HILL MO
1100 PM CDT WED JUL 26 2017

KSZ040-057-103>105-MOZ028-029-037-043-270500-
...KANSAS CITY METROPOLITAN AREA...

CITY           SKY/WX    TMP DP  RH WIND       PRES   REMARKS
K.C. INTL      TSTM      73  72  96 SE7       29.96F FOG
K.C. DOWNTOWN  TSTM      74  74 100 E10       29.97R FOG
LEES SUMMIT    HVY RAIN  73  72  96 N24G30    30.01R FOG
OLATHE - IXD   RAIN      77  76  96 NE7       29.98R FOG
OLATHE - OJC   TSTM      76  76 100 E10       29.97F
LAWRENCE       RAIN      75  75 100 CALM      29.98R FOG

$$

MOZ001>008-011>017-020>025-030>033-038>040-044>046-053-054-270500-
...NORTHERN AND CENTRAL MISSOURI...

CITY           SKY/WX    TMP DP  RH WIND       PRES   REMARKS
ST. JOSEPH     CLOUDY    78  76  93 CALM      29.98R
MOSBY          TSTM      73  72  94 S7        29.99S
WARRENSBURG    LGT RAIN  77  73  88 CALM      29.95S
WHITEMAN AFB   LGT RAIN  78  78 100 S6        29.95F
CLINTON        CLOUDY    81  77  89 SE5       29.97S
SEDALIA        CLOUDY    80  80 100 E3        29.99F
WARSAW         NOT AVBL
CHILLICOTHE      N/A     78  78 100 CALM      29.98F
KIRKSVILLE     CLOUDY    76  74  93 CALM      29.98S

$$

MOZ041-047>049-056>058-063>065-088>090-097-270500-
...EASTERN AND SOUTHERN MISSOURI...

CITY           SKY/WX    TMP DP  RH WIND       PRES   REMARKS
ST. LOUIS INTL TSTM      81  75  82 E3        29.96S
SPIRIT OF STL  CLOUDY    82  75  79 E5        29.94S
COLUMBIA       CLOUDY    82  78  88 CALM      29.96S HX  91
JEFFERSON CITY PTCLDY    83  79  88 NW3       29.94S HX  94
ROLLA          CLOUDY    83  72  69 S8        30.00R
OSAGE BEACH    CLOUDY    85  73  67 CALM      29.98R HX  91
SPRINGFIELD    CLOUDY    82  72  71 S8        30.01R
BRANSON        MOCLDY    81  72  74 CALM      30.04S
JOPLIN         CLOUDY    86  73  65 S10       29.99R HX  93
WEST PLAINS    MOCLDY    81  72  74 SW6       30.04S

$$

IAZ060-094-KSZ022-034>040-054-083-096-NEZ052-066-093-270500-
...KANSAS...SOUTHEAST NEBRASKA AND IOWA...

CITY           SKY/WX    TMP DP  RH WIND       PRES   REMARKS
TOPEKA         TSTM      76  76 100 S3        29.97R
MANHATTAN      CLOUDY    76  75  97 NE6       29.95F
EMPORIA        CLOUDY    79  75  87 NE5       29.95R
CHANUTE        CLOUDY    87  73  62 S15       29.95R HX  94
WICHITA        CLOUDY    86  71  60 S9        29.91R HX  91
OMAHA          PTCLDY    73  70  90 CALM      30.01R
LINCOLN        MOCLDY    73  72  96 N5        30.02S FOG
FALLS CITY     CLOUDY    75  74  96 CALM      29.97F
LAMONI         CLOUDY    76  75  97 W3        29.99S
DES MOINES     CLOUDY    75  73  93 N5        29.99R

$$




USA.gov is the U.S. government's official web portal to all federal, state and local government web resources and services.